[[{"header":{"parameterUnit":"m.s-1","parameterCategory":1,"la1":30.2991,"la2":30.254,"lo1":-89.0895,"lo2":-89.0444,"dy":0.0017,"dx":0.0017,"nx":28,"ny":28,"refTime":"2024-03-26T03:00:00:Z","depth":0,"parameterNumber":2,"parameterNumberName":"U-component_of_WINDS"},"data":[0,0,0,0,0,0,0,0,0,0,0,0,0,0,0,0,0,0,0,0,0,0,0,0,0,0,0,0,0,0,0,0,0,0,0,0,0,0,0,0,0,0,0,0,0,0,0,0,0,0,0,0,0,0,0,0,0,0,1.8824,1.8825,0,1.8868,1.8869,1.8869,1.8887,1.8886,1.8886,1.8886,1.8932,1.8933,1.8934,0,0,0,0,0,0,0,0,0,0,0,0,0,1.8758,1.8759,1.8824,1.8825,1.8825,1.8868,1.8869,1.8869,1.8887,1.8886,1.8886,1.8886,1.8931,1.8933,1.8935,0,0,0,0,0,0,0,0,0,0,0,0,0,1.8793,1.876,1.8824,1.8839,1.8841,1.8868,1.8869,1.887,1.8887,1.8886,1.8886,1.8886,1.8931,1.8933,1.8935,1.8951,0,0,1.8941,1.8942,0,0,0,0,0,0,0,0,1.8791,1.8795,1.8836,1.8838,1.884,1.8872,1.8862,1.8897,1.8887,1.8869,1.8886,1.8886,1.8912,1.8916,1.8924,1.8953,1.8955,1.8941,1.8942,1.8943,1.8944,0,0,0,0,0,0,0,1.8788,1.8794,1.8842,1.8837,1.8839,1.8845,1.8849,1.8869,1.8891,1.8871,1.8872,1.8877,1.8913,1.8922,1.8925,1.8955,1.8941,1.8943,1.8944,1.8945,1.9003,1.9003,0,0,0,0,0,0,1.8783,1.8791,1.884,1.8843,1.8815,1.8846,1.8851,1.8862,1.8891,1.8895,1.8877,1.8878,1.8919,1.8923,1.8927,1.8949,1.8943,1.8945,1.8946,1.9002,1.9003,1.9003,0,0,0,0,0,0,1.8782,1.8787,1.8838,1.8818,1.8825,1.8847,1.8859,1.8863,1.8872,1.8896,1.89,1.8882,1.8919,1.8924,1.8945,1.8951,1.8946,1.8948,1.9002,1.9003,1.9003,1.8993,0,0,0,0,0,0,1.878,1.8787,1.8792,1.8818,1.8826,1.8855,1.8859,1.8864,1.8875,1.8876,1.8902,1.8906,1.8919,1.8942,1.8947,1.8954,1.8949,1.9002,1.9002,1.9003,1.8993,1.8993,1.8993,0,0,0,0,0,1.8777,1.8787,1.8792,1.8798,1.8832,1.8855,1.886,1.8875,1.8876,1.8882,1.8898,1.8905,1.895,1.8944,1.895,1.8957,1.9001,1.9002,1.9003,1.8993,1.8993,1.8993,0,0,0,0,0,0,1.8761,1.879,1.8796,1.8814,1.8832,1.8858,1.8866,1.8874,1.8892,1.8892,1.8911,1.8917,1.8937,1.8949,1.8942,1.8976,1.8976,1.8978,1.8967,1.8967,1.8967,1.8964,1.8951,0,0,0,0,0,1.8759,1.8774,1.88,1.8813,1.8822,1.8843,1.8853,1.8863,1.8883,1.889,1.8908,1.8926,1.8945,1.8957,1.8975,1.8995,1.9002,1.9003,1.9004,1.9004,1.9005,1.9019,1.9021,1.9006,1.9006,1.9006,0,0,1.8756,1.8774,1.8782,1.881,1.8825,1.8842,1.8849,1.8865,1.8878,1.8893,1.8914,1.8928,1.8951,1.8972,1.8982,1.8983,1.9011,1.9005,1.9005,1.9006,1.902,1.9022,1.9023,1.9006,1.9006,1.9006,0,0,1.8758,1.8773,1.8787,1.8802,1.8826,1.884,1.8843,1.8869,1.8879,1.8901,1.8913,1.8929,1.896,1.8977,1.8989,1.9003,1.9011,1.9008,1.9009,1.9023,1.9024,1.9025,1.9031,1.9033,1.901,1.901,1.901,0,1.8751,1.8776,1.8793,1.881,1.8823,1.8838,1.8853,1.8868,1.8896,1.8905,1.8906,1.8948,1.8964,1.899,1.8994,1.9003,1.9009,1.9005,1.9022,1.9024,1.9025,1.9031,1.9033,1.9009,1.9009,1.9009,1.9009,0,1.8767,1.8784,1.8793,1.8821,1.8835,1.8851,1.8872,1.8884,1.8895,1.8909,1.8933,1.8954,1.8978,1.8985,1.8995,1.9014,1.9014,1.9018,1.9019,1.9026,1.9032,1.9034,1.9009,1.9009,1.9009,1.9009,0,0,1.8757,1.8797,1.88,1.8814,1.8842,1.8856,1.8875,1.8899,1.891,1.893,1.8946,1.8974,1.898,1.8994,1.9006,1.9018,1.903,1.9021,1.9022,1.9023,1.9055,1.9052,1.9054,1.9036,1.9036,1.9037,1.9054,0,1.8764,1.8796,1.8814,1.8839,1.8857,1.8874,1.889,1.891,1.8925,1.8944,1.8961,1.8981,1.8985,1.8994,1.9007,1.9025,1.9037,1.9025,1.9053,1.9054,1.9046,1.9057,1.9053,1.9068,1.9056,1.9056,1.9057,0,1.8776,1.8796,1.8824,1.8853,1.8861,1.8875,1.89,1.8917,1.8942,1.8952,1.897,1.8983,1.9005,1.9005,1.9036,1.9028,1.9041,1.9052,1.9053,1.9056,1.9055,1.9061,1.9073,1.9075,1.906,1.906,1.906,0,1.8768,1.8802,1.8824,1.8835,1.8869,1.8879,1.8894,1.8919,1.8933,1.8956,1.8966,1.8991,1.9004,1.9024,1.9044,1.9042,1.9075,1.9075,1.9085,1.9085,1.909,1.909,1.9104,1.9098,1.9098,1.9098,1.9098,0,1.8773,1.8789,1.8821,1.8834,1.8854,1.8875,1.8894,1.8911,1.8933,1.8951,1.8968,1.8984,1.901,1.9031,1.9047,1.9072,1.9077,1.9088,1.9092,1.9086,1.9085,1.9095,1.9094,1.9099,1.9099,1.9099,1.9098,0,1.8767,1.8788,1.8813,1.8844,1.8853,1.8866,1.8894,1.8909,1.8926,1.8949,1.8956,1.8983,1.9009,1.9031,1.9065,1.9076,1.9102,1.9106,1.9093,1.9096,1.9104,1.9103,1.9126,1.9131,1.9121,1.9121,1.9121,0,1.8768,1.8782,1.8816,1.8829,1.8844,1.8865,1.888,1.8903,1.8919,1.895,1.8961,1.8988,1.9011,1.9051,1.9075,1.9102,1.9108,1.9114,1.9111,1.9107,1.9109,1.9108,1.9111,1.9113,1.9113,1.9113,1.9113,0,1.877,1.8781,1.8802,1.8829,1.8847,1.8868,1.8891,1.8901,1.8928,1.8946,1.8972,1.899,1.9026,1.9053,1.9083,1.91,1.9112,1.9114,1.9118,1.9112,1.9105,1.911,1.9094,1.9113,1.9113,1.9113,1.9113,1.9113,1.8769,1.8782,1.8809,1.8833,1.8853,1.8874,1.889,1.891,1.8933,1.8963,1.8976,1.9004,1.9032,1.9073,1.9091,1.9114,1.9116,1.9121,1.9123,1.9124,1.9123,1.9102,1.912,1.912,1.912,1.912,1.912,0,1.8772,1.8791,1.8813,1.8845,1.8864,1.8875,1.8901,1.8917,1.8941,1.8966,1.8989,1.9021,1.9049,1.9076,1.9105,1.9119,1.9126,1.9126,1.9125,1.913,1.9119,1.9113,1.9121,1.9121,1.9121,1.9121,1.9121,1.912,1.8776,1.8801,1.8815,1.8851,1.887,1.8897,1.8911,1.8932,1.8952,1.8987,1.9011,1.9028,1.9055,1.9088,1.9114,1.9122,1.9132,1.9132,1.9141,1.913,1.913,1.9129,1.9124,1.9133,1.9133,1.9149,1.9149,1.9149]},{"header":{"parameterUnit":"m.s-1","parameterCategory":1,"la1":30.2991,"la2":30.254,"lo1":-89.0895,"lo2":-89.0444,"dy":0.0017,"dx":0.0017,"nx":28,"ny":28,"refTime":"2024-03-26T03:00:00:Z","depth":0,"parameterNumber":3,"parameterNumberName":"V-component_of_WINDS"},"data":[0,0,0,0,0,0,0,0,0,0,0,0,0,0,0,0,0,0,0,0,0,0,0,0,0,0,0,0,0,0,0,0,0,0,0,0,0,0,0,0,0,0,0,0,0,0,0,0,0,0,0,0,0,0,0,0,0,0,-4.2302,-4.2301,0,-4.2237,-4.2236,-4.2235,-4.2238,-4.2239,-4.224,-4.2241,-4.2168,-4.2165,-4.2162,0,0,0,0,0,0,0,0,0,0,0,0,0,-4.2422,-4.242,-4.2302,-4.2301,-4.23,-4.2237,-4.2236,-4.2235,-4.2238,-4.2239,-4.224,-4.2241,-4.2168,-4.2165,-4.2162,0,0,0,0,0,0,0,0,0,0,0,0,0,-4.2365,-4.2419,-4.2302,-4.2294,-4.2293,-4.2237,-4.2236,-4.2235,-4.2238,-4.2239,-4.2241,-4.2242,-4.217,-4.2165,-4.2161,-4.2107,0,0,-4.2148,-4.2146,0,0,0,0,0,0,0,0,-4.2368,-4.236,-4.2296,-4.2295,-4.2293,-4.2247,-4.2252,-4.2192,-4.2238,-4.2259,-4.2241,-4.2243,-4.2192,-4.2186,-4.2171,-4.2103,-4.21,-4.2148,-4.2145,-4.2144,-4.2142,0,0,0,0,0,0,0,-4.2372,-4.2363,-4.2276,-4.2295,-4.2293,-4.2292,-4.2285,-4.224,-4.2218,-4.2257,-4.2257,-4.225,-4.2192,-4.2175,-4.2169,-4.2099,-4.2148,-4.2144,-4.2142,-4.214,-4.1983,-4.1981,0,0,0,0,0,0,-4.2379,-4.2366,-4.2278,-4.2274,-4.2335,-4.2289,-4.2281,-4.226,-4.2219,-4.2214,-4.2248,-4.225,-4.2182,-4.2174,-4.2167,-4.2099,-4.2144,-4.214,-4.2137,-4.1985,-4.1983,-4.1981,0,0,0,0,0,0,-4.2381,-4.2371,-4.2281,-4.232,-4.2309,-4.2285,-4.2262,-4.2258,-4.2242,-4.2213,-4.2208,-4.2236,-4.2182,-4.2173,-4.2122,-4.2097,-4.2138,-4.2134,-4.1986,-4.1984,-4.1982,-4.1965,0,0,0,0,0,0,-4.2385,-4.2372,-4.2352,-4.232,-4.2307,-4.2239,-4.226,-4.2256,-4.2235,-4.2237,-4.2199,-4.2194,-4.2183,-4.2128,-4.2118,-4.2092,-4.213,-4.1988,-4.1985,-4.1982,-4.1968,-4.1962,-4.1958,0,0,0,0,0,-4.2389,-4.2348,-4.2351,-4.234,-4.2282,-4.2238,-4.223,-4.2219,-4.2233,-4.2212,-4.2194,-4.2196,-4.2102,-4.2123,-4.2111,-4.2084,-4.199,-4.1986,-4.1983,-4.197,-4.1963,-4.1958,0,0,0,0,0,0,-4.2375,-4.2344,-4.2346,-4.2295,-4.2269,-4.2238,-4.2211,-4.2213,-4.218,-4.2183,-4.2169,-4.216,-4.211,-4.2092,-4.2116,-4.2028,-4.2047,-4.2041,-4.2042,-4.2035,-4.2031,-4.2035,-4.2127,0,0,0,0,0,-4.2367,-4.2336,-4.2309,-4.2266,-4.2253,-4.2235,-4.2215,-4.2209,-4.2181,-4.2169,-4.2147,-4.2118,-4.2081,-4.2058,-4.2023,-4.1966,-4.1957,-4.1941,-4.1936,-4.1932,-4.1926,-4.1893,-4.1886,-4.1969,-4.1969,-4.1969,0,0,-4.2348,-4.2327,-4.2308,-4.2263,-4.2242,-4.2208,-4.2225,-4.2188,-4.2162,-4.2163,-4.2114,-4.2097,-4.2063,-4.2009,-4.1984,-4.1992,-4.1902,-4.1927,-4.1925,-4.1921,-4.1889,-4.1881,-4.1874,-4.1966,-4.1967,-4.1967,0,0,-4.2296,-4.2278,-4.224,-4.222,-4.2189,-4.2178,-4.2169,-4.2138,-4.2127,-4.2078,-4.2078,-4.2046,-4.1984,-4.196,-4.194,-4.188,-4.188,-4.1869,-4.1842,-4.181,-4.1804,-4.1798,-4.1775,-4.1767,-4.1864,-4.1863,-4.1863,0,-4.2276,-4.2226,-4.222,-4.2183,-4.2163,-4.2165,-4.2125,-4.2105,-4.2063,-4.2048,-4.2059,-4.1983,-4.196,-4.19,-4.1885,-4.1869,-4.1857,-4.1872,-4.1806,-4.18,-4.1794,-4.1772,-4.1764,-4.1862,-4.1862,-4.1862,-4.1863,0,-4.2202,-4.2168,-4.2141,-4.2104,-4.208,-4.2042,-4.2028,-4.2004,-4.2001,-4.1988,-4.1937,-4.1911,-4.1871,-4.1856,-4.1852,-4.1795,-4.1801,-4.1809,-4.1828,-4.1785,-4.1764,-4.1756,-4.186,-4.1861,-4.1861,-4.1862,0,0,-4.2137,-4.2099,-4.2089,-4.2072,-4.2039,-4.2011,-4.1973,-4.1936,-4.1916,-4.1888,-4.1853,-4.1802,-4.181,-4.1786,-4.1779,-4.1752,-4.1705,-4.1763,-4.1762,-4.1751,-4.1638,-4.1631,-4.1622,-4.1705,-4.1704,-4.1703,-4.1641,0,-4.2081,-4.2015,-4.2009,-4.1949,-4.1916,-4.1919,-4.1885,-4.186,-4.1846,-4.1815,-4.1799,-4.1763,-4.1776,-4.1762,-4.1735,-4.1716,-4.1681,-4.1721,-4.1671,-4.1669,-4.1677,-4.1611,-4.1603,-4.1546,-4.1633,-4.1631,-4.163,0,-4.2006,-4.1978,-4.1916,-4.1888,-4.1874,-4.1844,-4.1809,-4.1781,-4.1752,-4.1744,-4.1719,-4.1716,-4.1674,-4.1696,-4.1637,-4.1664,-4.1643,-4.163,-4.1628,-4.1621,-4.1646,-4.16,-4.1528,-4.1518,-4.1618,-4.1619,-4.1619,0,-4.1963,-4.191,-4.1866,-4.1852,-4.1818,-4.1797,-4.1782,-4.1755,-4.1733,-4.1702,-4.1688,-4.1652,-4.1631,-4.1603,-4.1589,-4.1607,-4.153,-4.1551,-4.152,-4.152,-4.1502,-4.1503,-4.1423,-4.1492,-4.1492,-4.1492,-4.1492,0,-4.1899,-4.186,-4.1846,-4.1819,-4.1775,-4.1768,-4.1724,-4.1709,-4.1685,-4.1653,-4.1653,-4.1622,-4.1607,-4.1574,-4.1563,-4.1514,-4.1505,-4.1496,-4.1493,-4.1495,-4.1496,-4.1479,-4.1482,-4.149,-4.1491,-4.1491,-4.1491,0,-4.1843,-4.1833,-4.1784,-4.1758,-4.175,-4.1719,-4.1695,-4.1667,-4.1656,-4.1615,-4.1605,-4.1584,-4.1545,-4.153,-4.1481,-4.1473,-4.1417,-4.1418,-4.1427,-4.1426,-4.1395,-4.1397,-4.13,-4.1286,-4.1366,-4.1366,-4.1365,0,-4.1802,-4.1773,-4.1744,-4.1724,-4.1709,-4.1676,-4.1655,-4.1646,-4.1623,-4.1589,-4.1565,-4.1527,-4.1495,-4.1432,-4.1411,-4.1374,-4.1373,-4.1341,-4.1367,-4.1369,-4.137,-4.1371,-4.1367,-4.1336,-4.1335,-4.1334,-4.1334,0,-4.173,-4.1727,-4.1697,-4.1666,-4.1641,-4.1615,-4.159,-4.1573,-4.156,-4.1534,-4.1495,-4.1471,-4.1423,-4.1384,-4.1346,-4.1327,-4.1327,-4.1326,-4.1317,-4.1317,-4.1323,-4.1317,-4.1412,-4.1328,-4.1328,-4.1329,-4.1329,-4.1329,-4.1679,-4.1653,-4.1629,-4.1596,-4.1577,-4.1553,-4.1526,-4.1512,-4.148,-4.1442,-4.1438,-4.1396,-4.1367,-4.1316,-4.1297,-4.1262,-4.127,-4.1256,-4.1252,-4.1249,-4.1246,-4.1331,-4.1255,-4.1255,-4.1255,-4.1256,-4.1256,0,-4.1605,-4.159,-4.1561,-4.1527,-4.15,-4.1507,-4.1479,-4.1456,-4.1419,-4.1394,-4.1364,-4.1319,-4.1282,-4.1259,-4.1221,-4.1197,-4.1196,-4.1187,-4.1187,-4.1183,-4.1242,-4.1253,-4.1188,-4.1188,-4.1189,-4.1189,-4.1189,-4.1189,-4.1563,-4.1519,-4.1513,-4.1459,-4.1444,-4.1405,-4.1389,-4.1366,-4.1346,-4.1297,-4.1267,-4.1254,-4.1228,-4.1189,-4.1154,-4.1148,-4.1132,-4.1123,-4.1117,-4.1172,-4.1179,-4.1185,-4.1196,-4.112,-4.112,-4.106,-4.106,-4.1059]}]]